TimeCST,TemperatureF,Dew PointF,Humidity,Sea Level PressureIn,VisibilityMPH,Wind Direction,Wind SpeedMPH,Gust SpeedMPH,PrecipitationIn,Events,Conditions,WindDirDegrees,DateUTC
12:53 AM,46.0,41.0,83,30.15,10.0,NNE,3.5,-,N/A,,Partly Cloudy,30,2013-02-12 06:53:00
1:53 AM,46.0,41.0,83,30.17,10.0,Calm,Calm,-,N/A,,Clear,0,2013-02-12 07:53:00
2:53 AM,45.0,41.0,86,30.15,10.0,NNE,4.6,-,N/A,,Overcast,30,2013-02-12 08:53:00
3:53 AM,45.0,39.9,82,30.14,10.0,NE,6.9,-,N/A,,Scattered Clouds,50,2013-02-12 09:53:00
4:53 AM,45.0,39.9,82,30.12,10.0,NE,5.8,-,N/A,,Partly Cloudy,40,2013-02-12 10:53:00
5:53 AM,44.1,36.0,73,30.11,10.0,North,4.6,-,N/A,,Scattered Clouds,360,2013-02-12 11:53:00
6:53 AM,41.0,35.1,79,30.09,10.0,ENE,4.6,-,N/A,,Clear,70,2013-02-12 12:53:00
7:53 AM,46.0,36.0,68,30.10,10.0,ESE,4.6,-,N/A,,Clear,110,2013-02-12 13:53:00
8:53 AM,48.0,34.0,58,30.04,10.0,East,8.1,-,N/A,,Clear,90,2013-02-12 14:53:00
9:53 AM,48.0,34.0,58,30.08,10.0,East,5.8,-,N/A,,Clear,100,2013-02-12 15:53:00
10:53 AM,48.9,34.0,56,30.06,10.0,ENE,6.9,-,N/A,,Mostly Cloudy,70,2013-02-12 16:53:00
11:53 AM,50.0,34.0,54,30.05,10.0,ENE,5.8,-,N/A,,Overcast,70,2013-02-12 17:53:00
12:53 PM,50.0,39.9,68,30.01,10.0,SE,6.9,-,0.01,Rain,Light Rain,130,2013-02-12 18:53:00
1:44 PM,48.2,39.2,71,29.99,10.0,NE,5.8,-,0.00,Rain-Thunderstorm,Light Thunderstorms and Rain,50,2013-02-12 19:44:00
1:53 PM,48.0,41.0,77,29.98,10.0,NE,9.2,-,0.00,Rain,Light Rain,40,2013-02-12 19:53:00
2:53 PM,46.0,41.0,83,29.94,9.0,ENE,10.4,-,0.08,Rain,Light Rain,70,2013-02-12 20:53:00
3:53 PM,46.0,41.0,83,29.89,10.0,East,10.4,-,0.01,Rain,Light Rain,90,2013-02-12 21:53:00
4:53 PM,46.0,41.0,83,29.91,6.0,East,6.9,-,0.02,Rain,Rain,90,2013-02-12 22:53:00
5:53 PM,45.0,41.0,86,29.88,10.0,ENE,9.2,-,0.02,Rain,Light Rain,70,2013-02-12 23:53:00
6:53 PM,45.0,39.9,82,29.88,10.0,East,8.1,-,0.00,,Overcast,80,2013-02-13 00:53:00
7:53 PM,44.1,39.9,85,29.86,10.0,East,11.5,-,0.01,,Overcast,80,2013-02-13 01:53:00
8:53 PM,44.1,41.0,89,29.83,9.0,ENE,11.5,-,0.01,,Overcast,70,2013-02-13 02:53:00
9:53 PM,44.1,39.9,85,29.81,10.0,East,10.4,-,N/A,,Overcast,100,2013-02-13 03:53:00
10:51 PM,42.8,41.0,93,29.79,4.0,ESE,4.6,-,N/A,,Overcast,110,2013-02-13 04:51:00
10:53 PM,43.0,41.0,93,29.80,3.0,ESE,5.8,-,N/A,,Overcast,120,2013-02-13 04:53:00
11:35 PM,42.8,41.0,93,29.80,4.0,SSW,3.5,-,0.01,,Overcast,200,2013-02-13 05:35:00
11:53 PM,43.0,41.0,93,29.80,4.0,South,4.6,-,0.01,,Overcast,180,2013-02-13 05:53:00